GW3840 Weather Reports


time (UTC)temp
F
wind
direction
speed
knots
gust
knots
rain 1hr
in
rain 24hr
in
rain mn
in
humidity
%
barometer
mb
20260904214607 86 52 1.7 2.6 0.00 0.00 0.00 65 1015.4
20260904214103 86 86 1.7 3.5 0.00 0.00 0.00 65 1015.5
20260904213600 85 266 0.9 3.5 0.00 0.00 0.00 66 1015.4
20260904213057 86 55 5.2 6.1 0.00 0.00 0.00 64 1015.5
20260904212556 85 209 0.9 3.5 0.00 0.00 0.00 66 1015.6
20260904212052 86 98 4.3 6.1 0.00 0.00 0.00 67 1015.7
20260904211551 85 55 3.5 5.2 0.00 0.00 0.00 68 1015.6
20260904211047 85 139 1.7 2.6 0.00 0.00 0.00 68 1015.7
20260904210546 86 328 2.6 5.2 0.00 0.00 0.00 67 1015.5
20260904210042 85 103 2.6 3.5 0.00 0.00 0.00 67 1015.4
20260904205536 86 107 1.7 2.6 0.00 0.00 0.00 68 1015.6
20260904205033 86 6 1.7 3.5 0.00 0.00 0.00 69 1015.4
20260904204529 85 358 1.7 2.6 0.00 0.00 0.00 68 1015.5
20260904204025 85 41 0.9 1.7 0.00 0.00 0.00 68 1015.6
20260904203520 85 188 0.0 5.2 0.00 0.00 0.00 70 1015.5
20260904203017 84 76 2.6 6.1 0.00 0.00 0.00 70 1015.6
20260904202512 85 17 2.6 5.2 0.00 0.00 0.00 69 1015.5
20260904202008 85 42 1.7 8.7 0.00 0.00 0.00 74 1015.7
20260904201503 85 14 1.7 2.6 0.00 0.00 0.00 72 1015.7
20260904200959 84 74 1.7 5.2 0.00 0.00 0.00 71 1015.7
20260904200457 84 333 1.7 7.0 0.00 0.00 0.00 73 1015.6
20260904195952 84 103 1.7 2.6 0.00 0.00 0.00 71 1015.6
20260904195450 83 299 1.7 5.2 0.00 0.00 0.00 74 1015.6
20260904194949 84 86 1.7 2.6 0.00 0.00 0.00 72 1015.5
20260904194444 82 32 0.9 5.2 0.00 0.00 0.00 76 1015.5
20260904193939 82 66 1.7 2.6 0.00 0.00 0.00 75 1015.5
20260904193435 82 1 3.5 6.1 0.00 0.00 0.00 77 1015.3
20260904192930 82 84 2.6 5.2 0.00 0.00 0.00 76 1015.4
20260904192425 82 223 0.0 5.2 0.00 0.00 0.00 78 1015.7
20260904191922 81 53 3.5 5.2 0.00 0.00 0.00 79 1015.5
20260904191418 81 131 3.5 6.1 0.00 0.00 0.00 79 1015.8
20260904190914 81 155 1.7 5.2 0.00 0.00 0.00 79 1015.6
20260904190409 80 151 1.7 5.2 0.00 0.00 0.00 81 1015.6
20260904185906 81 340 0.9 5.2 0.00 0.00 0.00 80 1015.9
20260904185401 80 65 0.9 6.1 0.00 0.00 0.00 82 1015.9
20260904184901 79 121 3.5 5.2 0.00 0.00 0.00 81 1015.7
20260904184356 79 19 1.7 3.5 0.00 0.00 0.00 82 1015.7
20260904183851 78 40 3.5 5.2 0.00 0.00 0.00 83 1015.7
20260904183346 78 22 4.3 6.1 0.00 0.00 0.00 84 1015.9
20260904182842 78 1 4.3 5.2 0.00 0.00 0.00 83 1015.8
20260904182336 77 107 1.7 6.1 0.00 0.00 0.00 86 1016.0
20260904181832 77 75 2.6 5.2 0.00 0.00 0.00 87 1016.1
20260904181332 77 86 3.5 5.2 0.00 0.00 0.00 86 1016.2
20260904180827 77 119 2.6 5.2 0.00 0.00 0.00 86 1016.2
20260904180323 76 34 2.6 5.2 0.00 0.00 0.00 87 1016.1
20260904175821 76 66 1.7 2.6 0.00 0.00 0.00 88 1016.1
20260904175320 76 0 0.9 3.5 0.00 0.00 0.00 87 1016.1
20260904174815 76 64 3.5 6.1 0.00 0.00 0.00 88 1016.0
20260904174311 75 38 4.3 7.0 0.00 0.00 0.00 88 1016.1
20260904173807 75 92 3.5 7.8 0.00 0.00 0.00 90 1016.1
20260904173302 75 15 1.7 6.1 0.00 0.00 0.00 90 1015.9
20260904172758 74 85 1.7 6.1 0.00 0.00 0.00 91 1015.8
20260904172257 74 38 2.6 5.2 0.00 0.00 0.00 92 1016.0
20260904171752 74 64 4.3 6.1 0.00 0.00 0.00 92 1016.1
20260904171248 74 91 2.6 5.2 0.00 0.00 0.00 92 1016.0
20260904170744 73 92 2.6 7.0 0.00 0.00 0.00 93 1016.3
20260904170239 73 63 3.5 5.2 0.00 0.00 0.00 94 1015.8
20260904165738 74 54 4.3 7.0 0.00 0.00 0.00 93 1015.6
20260904165232 73 65 2.6 6.1 0.00 0.00 0.00 94 1015.7
20260904164732 73 16 2.6 2.6 0.00 0.00 0.00 95 1015.8
20260904164227 72 198 0.9 2.6 0.00 0.00 0.00 96 1015.7
20260904163724 72 3 1.7 5.2 0.00 0.00 0.00 97 1015.6
20260904163219 71 11 2.6 2.6 0.00 0.00 0.00 97 1015.7
20260904162718 71 36 3.5 5.2 0.00 0.00 0.00 98 1015.6
20260904162213 71 27 3.5 3.5 0.00 0.00 0.00 99 1015.6
20260904161708 70 43 3.5 3.5 0.00 0.00 0.00 99 1015.6
20260904161203 69 26 0.9 3.5 0.00 0.00 0.00 99 1015.4
20260904160700 69 50 1.7 5.2 0.00 0.00 0.00 99 1015.3
20260904160154 69 27 1.7 3.5 0.00 0.00 0.00 99 1015.4
20260904155649 68 28 1.7 3.5 0.00 0.00 0.00 99 1015.5
20260904155148 68 25 3.5 3.5 0.00 0.00 0.00 99 1015.4
20260904154647 68 116 1.7 2.6 0.00 0.00 0.00 99 1015.4
20260904154142 68 265 0.0 3.5 0.00 0.00 0.00 99 1015.4
20260904153637 68 340 2.6 5.2 0.00 0.00 0.00 99 1015.4
20260904153137 67 104 1.7 2.6 0.00 0.00 0.00 99 1015.2
20260904152634 67 38 2.6 5.2 0.00 0.00 0.00 99 1015.4
20260904152129 67 76 1.7 3.5 0.00 0.00 0.00 99 1015.5
20260904151624 67 88 4.3 7.0 0.00 0.00 0.00 99 1015.4
20260904151123 67 100 1.7 3.5 0.00 0.00 0.00 99 1015.3
20260904150619 67 87 0.9 2.6 0.00 0.00 0.00 99 1015.2
20260904150114 66 66 1.7 3.5 0.00 0.00 0.00 99 1015.1
20260904145612 67 5 0.9 2.6 0.00 0.00 0.00 99 1015.2
20260904145108 66 5 1.7 2.6 0.00 0.00 0.00 99 1015.3
20260904144604 66 33 1.7 1.7 0.00 0.00 0.00 99 1015.2
20260904144059 66 98 0.9 2.6 0.00 0.00 0.00 99 1015.3
20260904143555 66 80 0.9 1.7 0.00 0.00 0.00 99 1015.1
20260904143051 66 54 1.7 5.2 0.00 0.00 0.00 99 1015.0
20260904142548 66 36 0.9 2.6 0.00 0.00 0.00 99 1015.1
20260904142043 66 4 0.9 2.6 0.00 0.00 0.00 99 1014.7
20260904141538 66 39 1.7 2.6 0.00 0.00 0.00 99 1014.6
20260904141034 66 9 1.7 3.5 0.00 0.00 0.00 99 1014.7
20260904140533 66 327 1.7 1.7 0.00 0.00 0.00 99 1014.6
20260904140028 66 100 1.7 1.7 0.00 0.00 0.00 99 1014.6
20260904135527 66 43 1.7 5.2 0.00 0.00 0.00 99 1014.5
20260904135024 66 37 0.9 2.6 0.00 0.00 0.00 99 1014.4
20260904134519 66 78 1.7 2.6 0.00 0.00 0.00 99 1014.3
20260904134013 66 85 1.7 2.6 0.00 0.00 0.00 99 1014.3
20260904133507 66 121 0.9 1.7 0.00 0.00 0.00 99 1014.2
20260904133003 66 56 0.9 2.6 0.00 0.00 0.00 99 1014.1
20260904132458 66 344 0.9 2.6 0.00 0.00 0.00 99 1014.2
20260904131957 65 23 1.7 3.5 0.00 0.00 0.00 99 1014.2
20260904131452 65 359 1.7 2.6 0.00 0.00 0.00 99 1014.4
20260904130948 65 14 1.7 3.5 0.00 0.00 0.00 99 1014.2
20260904130447 65 82 0.9 1.7 0.00 0.00 0.00 99 1014.2
20260904125942 65 102 0.9 1.7 0.00 0.00 0.00 99 1014.2
20260904125438 65 2 1.7 1.7 0.00 0.00 0.00 99 1014.1
20260904124933 66 349 1.7 3.5 0.00 0.00 0.00 99 1013.7
20260904124429 65 258 0.9 1.7 0.00 0.00 0.00 99 1013.8
20260904123924 65 65 1.7 3.5 0.00 0.00 0.00 99 1013.6
20260904123419 65 9 0.9 1.7 0.00 0.00 0.00 99 1013.5
20260904122914 65 4 1.7 2.6 0.00 0.00 0.00 99 1013.5
20260904122414 65 87 1.7 1.7 0.00 0.00 0.00 99 1013.5
20260904121908 65 101 0.9 1.7 0.00 0.00 0.00 99 1013.4
20260904121405 65 331 1.7 2.6 0.00 0.00 0.00 99 1013.3
20260904120901 65 295 0.0 1.7 0.00 0.00 0.00 99 1013.4
20260904120357 65 26 1.7 1.7 0.00 0.00 0.00 99 1013.5
20260904115851 65 328 0.9 1.7 0.00 0.00 0.00 99 1013.4
20260904115346 66 36 0.0 0.9 0.00 0.00 0.00 99 1013.2
20260904114841 66 58 0.0 1.7 0.00 0.00 0.00 99 1013.2
20260904114336 65 150 0.0 0.9 0.00 0.00 0.00 99 1013.3
20260904113831 65 154 0.0 0.0 0.00 0.00 0.00 99 1013.2
20260904113330 66 116 0.9 2.6 0.00 0.00 0.00 99 1013.1
20260904112825 65 88 0.9 1.7 0.00 0.00 0.00 99 1012.8
20260904112320 66 194 0.0 0.9 0.00 0.00 0.00 99 1012.9
20260904111816 65 99 0.9 2.6 0.00 0.00 0.00 99 1012.9
20260904111311 66 77 0.9 0.9 0.00 0.00 0.00 99 1012.7
20260904110807 66 95 2.6 3.5 0.00 0.00 0.00 99 1012.8
20260904110306 66 82 1.7 1.7 0.00 0.00 0.00 99 1012.8
20260904105801 66 70 1.7 2.6 0.00 0.00 0.00 99 1012.6
20260904105256 66 55 3.5 3.5 0.00 0.00 0.00 99 1012.8
20260904104751 66 80 0.9 3.5 0.00 0.00 0.00 99 1012.7
20260904104247 66 68 0.9 2.6 0.00 0.00 0.00 99 1012.9
20260904103743 66 43 0.9 1.7 0.00 0.00 0.00 99 1012.9
20260904103237 66 114 0.0 1.7 0.00 0.00 0.00 99 1012.6
20260904102733 66 116 1.7 2.6 0.00 0.00 0.00 99 1012.6
20260904102229 66 102 0.9 3.5 0.00 0.00 0.00 99 1012.5
20260904101725 66 65 1.7 5.2 0.00 0.00 0.00 99 1012.7
20260904101220 66 79 0.9 3.5 0.00 0.00 0.00 99 1012.5
20260904100717 66 94 2.6 5.2 0.00 0.00 0.00 99 1012.8
20260904100212 66 69 2.6 3.5 0.00 0.00 0.00 99 1012.6
20260904095711 66 49 3.5 5.2 0.00 0.00 0.00 99 1012.5
20260904095206 66 66 0.9 1.7 0.00 0.00 0.00 99 1012.8
20260904094701 66 94 1.7 2.6 0.00 0.00 0.00 99 1012.6
20260904094156 66 69 3.5 6.1 0.00 0.00 0.00 99 1012.5
20260904093654 66 60 0.9 5.2 0.00 0.00 0.00 99 1012.5
20260904093153 66 17 1.7 2.6 0.00 0.00 0.00 99 1012.5
20260904092649 66 115 0.9 1.7 0.00 0.00 0.00 99 1012.7
20260904092145 66 108 0.9 1.7 0.00 0.00 0.00 99 1012.7
20260904091641 66 72 0.9 5.2 0.00 0.00 0.00 99 1012.7
20260904091141 66 7 3.5 6.1 0.00 0.00 0.00 99 1012.7
20260904090636 66 78 1.7 2.6 0.00 0.00 0.00 99 1012.6
20260904090132 66 123 0.9 3.5 0.00 0.00 0.00 99 1012.4
20260904085631 66 125 0.0 0.9 0.00 0.00 0.00 99 1012.4
20260904085126 66 99 1.7 5.2 0.00 0.00 0.00 99 1012.4
20260904084622 66 89 0.9 3.5 0.00 0.00 0.00 99 1012.2
20260904084118 66 119 0.9 1.7 0.00 0.00 0.00 99 1011.9
20260904083614 67 66 1.7 2.6 0.00 0.00 0.00 99 1012.0
20260904083109 67 50 0.9 1.7 0.00 0.00 0.00 99 1011.9
20260904082604 67 59 0.9 1.7 0.00 0.00 0.00 98 1011.9
20260904082100 67 82 1.7 3.5 0.00 0.00 0.00 98 1011.7
20260904081555 67 114 0.9 2.6 0.00 0.00 0.00 98 1011.6
20260904081050 68 99 1.7 3.5 0.00 0.00 0.00 98 1011.7
20260904080546 68 55 3.5 3.5 0.00 0.00 0.00 98 1011.4
20260904080042 68 8 1.7 3.5 0.00 0.00 0.00 98 1011.2
20260904075538 68 92 3.5 3.5 0.00 0.00 0.00 98 1011.2
20260904075032 69 120 0.9 1.7 0.00 0.00 0.00 98 1011.4
20260904074531 69 72 1.7 5.2 0.00 0.00 0.00 98 1011.3
20260904074026 69 95 1.7 3.5 0.00 0.00 0.00 98 1011.2
20260904073521 70 86 2.6 3.5 0.00 0.00 0.00 98 1011.3
20260904073018 70 91 0.9 2.6 0.00 0.00 0.00 99 1011.3
20260904072513 71 81 1.7 3.5 0.00 0.00 0.00 99 1011.3
20260904072008 71 76 0.9 2.6 0.00 0.00 0.00 99 1011.2
20260904071503 71 149 0.9 2.6 0.00 0.00 0.00 98 1011.4
20260904070958 71 88 0.9 3.5 0.00 0.00 0.00 98 1011.5
20260904070457 72 124 1.7 5.2 0.00 0.00 0.00 98 1011.1
20260904065952 72 119 0.9 1.7 0.00 0.00 0.00 98 1011.2
20260904065447 72 123 1.7 2.6 0.00 0.00 0.00 98 1011.2
20260904064942 72 124 0.0 3.5 0.00 0.00 0.00 98 1011.4
20260904064438 73 15 0.9 1.7 0.00 0.00 0.00 98 1010.9
20260904063933 73 123 1.7 1.7 0.00 0.00 0.00 97 1010.9
20260904063430 73 55 1.7 7.8 0.00 0.00 0.00 97 1011.5
20260904062924 74 9 2.6 6.1 0.00 0.00 0.00 97 1011.2
20260904062420 74 137 0.0 1.7 0.00 0.00 0.00 96 1010.9
20260904061916 73 114 1.7 3.5 0.00 0.00 0.00 97 1010.7
20260904061412 74 64 1.7 1.7 0.00 0.00 0.00 97 1010.6
20260904060908 73 88 0.9 1.7 0.00 0.00 0.00 97 1010.8
20260904060404 74 107 1.7 2.6 0.00 0.00 0.00 97 1010.8
20260904055859 74 120 1.7 2.6 0.00 0.00 0.00 97 1010.8
20260904055354 74 124 0.9 0.9 0.00 0.00 0.00 97 1010.8
20260904054850 74 141 0.9 1.7 0.00 0.00 0.00 97 1010.8
20260904054346 74 122 0.9 0.9 0.00 0.00 0.00 97 1010.8
20260904053841 74 195 0.9 1.7 0.00 0.00 0.00 97 1010.7
20260904053340 74 120 0.9 1.7 0.00 0.00 0.00 97 1010.5
20260904052836 74 123 1.7 2.6 0.00 0.00 0.00 97 1010.5
20260904052333 74 70 1.7 1.7 0.00 0.00 0.00 98 1010.5
20260904051829 74 127 0.9 0.9 0.00 0.00 0.00 98 1010.4
20260904051324 74 120 0.0 0.9 0.00 0.00 0.00 98 1010.4
20260904050819 74 128 0.0 0.0 0.00 0.00 0.00 97 1010.1
20260904050316 74 150 0.0 0.9 0.00 0.00 0.00 97 1010.2
20260904045810 74 74 0.9 1.7 0.00 0.03 0.03 97 1010.2
20260904045307 74 210 0.0 0.9 0.00 0.03 0.03 97 1010.3
20260904044759 75 127 0.0 0.0 0.00 0.03 0.03 96 1010.3
20260904044256 75 183 0.0 0.9 0.00 0.03 0.03 95 1010.2
20260904043746 75 78 0.0 1.7 0.00 0.03 0.03 96 1010.0
20260904043243 75 76 1.7 1.7 0.00 0.03 0.03 96 1010.1
20260904042743 75 109 1.7 1.7 0.00 0.03 0.03 97 1010.1
20260904042239 74 89 0.9 1.7 0.00 0.03 0.03 98 1010.2
20260904041738 74 173 0.0 0.0 0.00 0.03 0.03 98 1010.1
20260904041235 74 114 0.0 0.9 0.00 0.03 0.03 98 1010.1
20260904040731 75 96 0.9 0.9 0.00 0.03 0.03 97 1010.2
20260904040226 75 99 0.9 0.9 0.00 0.03 0.03 96 1010.2
20260904035722 75 81 0.9 0.9 0.00 0.03 0.03 96 1010.2
20260904035217 75 174 0.0 0.9 0.00 0.03 0.03 96 1010.2
20260904034716 75 130 0.0 0.9 0.00 0.03 0.03 97 1010.2
20260904034212 75 203 0.0 0.0 0.00 0.03 0.03 96 1010.1
20260904033708 76 123 0.0 0.0 0.00 0.03 0.03 96 1010.1
20260904033204 76 115 0.9 0.9 0.00 0.03 0.03 95 1010.1
20260904032700 76 137 0.9 1.7 0.00 0.03 0.03 94 1010.1
20260904032200 76 339 0.0 1.7 0.00 0.03 0.03 94 1010.0
20260904031700 76 119 0.9 1.7 0.00 0.03 0.03 95 1009.9
20260904031155 76 107 3.5 3.5 0.00 0.03 0.03 96 1009.7
20260904030651 76 167 0.9 2.6 0.00 0.03 0.03 97 1009.9
20260904030146 75 99 0.9 2.6 0.00 0.03 0.03 97 1010.1
20260904025642 76 114 0.0 2.6 0.00 0.03 0.03 97 1010.1
20260904025137 76 23 0.9 1.7 0.00 0.03 0.03 97 1009.9
20260904024632 76 151 0.0 0.9 0.00 0.03 0.03 96 1009.9
20260904024128 77 283 0.0 0.9 0.00 0.03 0.03 95 1009.9
20260904023623 77 24 1.7 2.6 0.00 0.03 0.03 94 1009.9
20260904023114 77 72 0.9 1.7 0.00 0.03 0.03 93 1009.7
20260904022614 77 82 0.9 2.6 0.00 0.03 0.03 93 1010.0
20260904022111 77 141 1.7 2.6 0.00 0.03 0.03 93 1009.7
20260904021606 77 97 2.6 2.6 0.00 0.03 0.03 93 1009.9
20260904021101 77 113 1.7 3.5 0.00 0.03 0.03 93 1009.6
20260904020556 77 99 1.7 3.5 0.05 0.03 0.03 93 1009.3
20260904020050 78 150 0.9 2.6 0.19 0.03 0.03 91 1009.5
20260904015545 81 63 0.9 2.6 0.14 0.02 0.02 85 1009.9
20260904015044 81 325 1.7 1.7 0.00 0.00 0.00 81 1009.9
20260904014538 81 5 1.7 2.6 0.00 0.00 0.00 81 1009.6
20260904014034 81 28 0.0 0.9 0.00 0.00 0.00 80 1009.4
20260904013531 82 117 0.0 0.9 0.00 0.00 0.00 80 1009.7
20260904013027 82 165 0.9 2.6 0.00 0.00 0.00 79 1009.5
20260904012526 82 122 1.7 2.6 0.00 0.00 0.00 79 1009.2
20260904012020 82 110 2.6 2.6 0.00 0.00 0.00 79 1009.0
20260904011514 82 115 2.6 2.6 0.00 0.00 0.00 78 1009.3
20260904011010 82 166 0.9 1.7 0.00 0.00 0.00 78 1009.5
20260904010506 83 110 0.9 1.7 0.00 0.00 0.00 77 1009.4
20260904010002 83 82 1.7 1.7 0.00 0.00 0.00 77 1009.3
20260904005456 84 85 3.5 3.5 0.00 0.00 0.00 76 1009.4
20260904004951 84 88 1.7 1.7 0.00 0.00 0.00 73 1009.3
20260904004448 85 102 1.7 1.7 0.00 0.00 0.00 71 1009.4
20260904003947 85 79 1.7 2.6 0.00 0.00 0.00 69 1009.3
20260904003443 85 115 0.9 1.7 0.00 0.00 0.00 69 1009.3
20260904002938 86 115 0.9 1.7 0.00 0.00 0.00 69 1009.3
20260904002435 86 134 0.9 3.5 0.00 0.00 0.00 68 1009.0
20260904001934 87 87 0.9 2.6 0.00 0.00 0.00 67 1009.0
20260904001429 87 73 1.7 2.6 0.00 0.00 0.00 66 1008.9
20260904000924 88 170 0.9 0.9 0.00 0.00 0.00 65 1008.9
20260904000425 88 68 0.0 1.7 0.00 0.00 0.00 65 1008.9
20260903235919 88 202 0.9 0.9 0.00 0.00 0.00 64 1009.0
20260903235415 89 223 0.0 1.7 0.00 0.00 0.00 64 1008.8
20260903234914 88 214 0.0 5.2 0.00 0.00 0.00 64 1008.7
20260903234410 88 280 1.7 3.5 0.00 0.00 0.00 64 1008.7
20260903233906 89 176 1.7 2.6 0.00 0.00 0.00 64 1008.5
20260903233402 89 236 1.7 3.5 0.00 0.00 0.00 63 1008.5
20260903232902 89 161 1.7 3.5 0.00 0.00 0.00 64 1008.4
20260903232357 89 185 1.7 5.2 0.00 0.00 0.00 64 1008.5
20260903231856 89 258 0.9 2.6 0.00 0.00 0.00 63 1008.3
20260903231351 89 247 2.6 6.1 0.00 0.00 0.00 63 1008.5
20260903230847 89 224 1.7 2.6 0.00 0.00 0.00 64 1008.3
20260903230341 90 110 0.9 2.6 0.00 0.00 0.00 63 1008.3
20260903225838 89 166 2.6 5.2 0.00 0.00 0.00 64 1008.4
20260903225328 89 67 3.5 6.1 0.00 0.00 0.00 63 1008.4
20260903224824 90 86 6.1 7.8 0.00 0.00 0.00 62 1008.2
20260903224320 90 164 0.9 5.2 0.00 0.00 0.00 62 1008.3
20260903223815 90 177 1.7 2.6 0.00 0.00 0.00 61 1008.2
20260903223309 89 164 0.9 5.2 0.00 0.00 0.00 62 1008.3
20260903222804 89 251 0.9 3.5 0.00 0.00 0.00 62 1008.2
20260903222305 89 138 2.6 7.0 0.00 0.00 0.00 62 1008.1
20260903221757 90 247 0.9 7.8 0.00 0.00 0.00 61 1008.3
20260903221256 91 80 3.5 5.2 0.00 0.00 0.00 60 1008.3
20260903220754 90 139 0.9 3.5 0.00 0.00 0.00 61 1008.4
20260903220249 90 151 1.7 3.5 0.00 0.00 0.00 62 1008.5
20260903215742 90 86 1.7 5.2 0.00 0.00 0.00 60 1008.4
20260903215238 90 108 0.9 3.5 0.00 0.00 0.00 62 1008.5
20260903214735 89 82 3.5 7.0 0.00 0.00 0.00 61 1008.5